Home   Weather   Bridgeport   Past weeks
Flag for USA

Past Weather in Bridgeport, Connecticut, USA — Yesterday and Last 2 Weeks

Now
67 °F

Sunny.


Feels Like: 67 °F
Forecast: 65 / 51 °F
Wind: 10 mph from West

Location: Sikorsky Memorial Airport

Current Time: Oct 23, 2019 at 4:57:04 pm

Latest Report: Oct 23, 2019 at 3:52 pm


Visibility: 10 mi

Pressure: 29.93 "Hg

Humidity: 30%

Dew Point: 34 °F

Location of BridgeportLocation

Past Weather in Bridgeport — Graph

°F

Bridgeport Temperature Yesterday

Maximum temperature yesterday: 60 °F (at 3:52 pm)
Minimum temperature yesterday: 52 °F (at 1:52 am)
Average temperature yesterday: 56 °F

High & Low Weather Summary for the Past Weeks

 TemperatureHumidityPressure
High70 °F (Oct 14, 3:52 pm)97% (Oct 16, 8:52 pm)30.29 "Hg (Oct 16, 8:52 pm)
Low39 °F (Oct 19, 6:52 am)32% (Oct 10, 3:52 pm)29.01 "Hg (Oct 17, 12:31 am)
Average57 °F69%29.95 "Hg
* Reported Oct 8 2:52 pm — Oct 23 2:52 pm, Bridgeport. Weather by CustomWeather, © 2019

Note: Actual official high and low records may vary slightly from our data, if they occured in-between our weather recording intervals... More about our weather records

Advertising

Bridgeport Weather History for the Previous 24 Hours

Scroll right to see more
 ConditionsComfort  
Time TempWeatherWind HumidityBarometerVisibility
2:52 pm
Wed, Oct 23
68 °FSunny.14 mph33%29.92 "Hg10 mi
1:52 pm67 °FSunny.16 mph33%29.91 "Hg10 mi
12:52 pm67 °FSunny.16 mph35%29.89 "Hg10 mi
11:52 am67 °FSunny.16 mph41%29.89 "Hg10 mi
10:52 am64 °FSunny.12 mph63%29.89 "Hg10 mi
9:52 am62 °FSunny.13 mph65%29.89 "Hg10 mi
8:52 am60 °FSunny.6 mph69%29.85 "Hg10 mi
7:52 am57 °FSunny.7 mph83%29.83 "Hg10 mi
6:52 am58 °FClear.6 mph81%29.78 "Hg10 mi
5:52 am59 °FPassing clouds.12 mph90%29.75 "Hg10 mi
5:07 am60 °FMostly cloudy.8 mph86%29.75 "Hg10 mi
4:52 am60 °FMostly cloudy.13 mph90%29.75 "Hg10 mi
3:57 am61 °FLight rain. Mostly cloudy.10 mph93%29.73 "Hg8 mi
2:52 am63 °FLight rain. Fog.7 mph97%29.73 "Hg5 mi
1:52 am62 °FLight rain. Fog.9 mph96%29.75 "Hg4 mi
12:52 am61 °FLight rain. Low clouds.13 mph97%29.78 "Hg8 mi
11:52 pm
Tue, Oct 22
60 °FLight rain. Fog.14 mph96%29.82 "Hg5 mi
10:52 pm60 °FLight rain. Low clouds.16 mph93%29.84 "Hg10 mi
9:59 pm60 °FLight rain. Mostly cloudy.17 mph93%29.88 "Hg9 mi
8:59 pm59 °FLight rain. Fog.12 mph96%29.91 "Hg2 mi
7:52 pm59 °FLight rain. Fog.17 mph93%29.91 "Hg4 mi
6:52 pm59 °FLight rain. Low clouds.18 mph90%29.92 "Hg9 mi
5:52 pm59 °FLight rain. Low clouds.18 mph90%29.93 "Hg10 mi
5:10 pm59 °FLight rain. Low clouds.20 mph90%29.93 "Hg10 mi
4:52 pm59 °FLight rain. Overcast.21 mph87%29.93 "Hg10 mi
Weather by CustomWeather, © 2019

See weather overview